This demonstration page uses our WeatherBlox Daily Observations layout. Learn more.

41.86663, -103.66717

Hourly Observations for June 1, 2020

Temp ( °F °C ) Dew Point ( °F °C ) Humidity (%) Winds ( mph kmh ) Pressure ( in mb ) Visibility ( mi km ) Precip ( " mm )
12:53 am 00:53 Clear 68 20 50 10 53 53 Calm 29.8 1009 10 16.0934 0 0
1:53 am 01:53 Clear 63 17.2 52 11.1 68 68 NNW 6 9 29.81 1009 10 16.0934 0 0
2:53 am 02:53 Clear 60 15.6 52 11.1 75 75 N 7 11 29.81 1009 10 16.0934 0 0
3:53 am 03:53 Clear 60 15.6 52 11.1 75 75 NNW 6 9 29.81 1010 10 16.0934 0 0
4:53 am 04:53 Clear 58 14.4 52 11.1 81 81 E 3 6 29.84 1010 10 16.0934 0 0
5:53 am 05:53 Sunny 58 14.4 52 11.1 81 81 undefined N/A 29.86 1011 10 16.0934 0 0
6:53 am 06:53 Sunny 64 17.8 54 12.2 70 70 undefined N/A 29.86 1011 10 16.0934 0 0
7:53 am 07:53 Sunny 72 22.2 53 11.7 52 52 N 3 6 29.86 1011 10 16.0934 0 0
8:53 am 08:53 Sunny 80 26.7 51 10.6 37 37 WNW 8 13 29.85 1011 10 16.0934 0 0
9:53 am 09:53 Sunny 85 29.4 52 11.1 32 32 W 10 17 29.83 1010 10 16.0934 0 0
10:53 am 10:53 Sunny 88 31.1 51 10.6 28 28 VRB 7 11 29.84 1010 10 16.0934 0 0
11:53 am 11:53 Sunny 93 33.9 49 9.4 22 22 VRB 6 9 29.83 1010 10 16.0934 0 0
12:53 pm 12:53 Sunny 95 35 44 6.7 17 17 WSW 3 6 29.8 1009 10 16.0934 0 0
1:53 pm 13:53 Sunny 96 35.6 43 6.1 16 16 NNE 10 17 29.78 1009 10 16.0934 0 0
2:53 pm 14:53 Sunny 96 35.6 42 5.6 15 15 WNW 8 13 29.77 1008 10 16.0934 0 0
3:53 pm 15:53 Sunny 96 35.6 40 4.4 14 14 VRB 5 7 29.75 1008 10 16.0934 0 0
4:53 pm 16:53 Sunny 98 36.7 41 5 14 14 SE 6 9 29.74 1007 10 16.0934 0 0
5:53 pm 17:53 Sunny 97 36.1 43 6.1 16 16 SE 9 15 29.73 1007 10 16.0934 0 0
6:53 pm 18:53 Sunny 92 33.3 50 10 24 24 SSE 10 17 29.73 1007 10 16.0934 0 0
7:53 pm 19:53 Sunny 85 29.4 52 11.1 32 32 SSE 8 13 29.75 1007 10 16.0934 0 0
8:53 pm 20:53 Clear 78 25.6 53 11.7 42 42 SE 6 9 29.76 1008 10 16.0934 0 0
9:53 pm 21:53 Clear 72 22.2 55 12.8 55 55 ENE 3 6 29.78 1009 10 16.0934 0 0
10:53 pm 22:53 Clear 68 20 54 12.2 61 61 NW 8 13 29.8 1009 10 16.0934 0 0
11:53 pm 23:53 Clear 67 19.4 55 12.8 66 66 Calm 29.78 1008 10 16.0934 0 0

Powered by AerisWeather